Back to catalog

SL-8 R/B

AliveLEO
NORAD 6207·ROCKET BODY·🇷🇺 Russia

Launched Sep 29, 1972 from Plesetsk Cosmodrome

Loading…

Next Passes (next 24 hours)

TLE

FreshSource: Space-Track

Epoch: Sep 14, 2026, 07:28 UTC

1 06207U 72074B   26257.31149505 -.00000031  00000-0  50804-4 0  9991
2 06207  65.8223 206.6468 0032018 268.3909 244.1745 13.76026459708898

Track SL-8 R/B in real time with AllMySat

Download on the App Store